Flag Weather past 2 weeks in Kaunas, Lithuania

Now
39 °F

Sleet. Fog.


Feels Like: 39 °F
Forecast: 31 / 44 °F
Wind: 2 mph from North

Location: Kaunas

Current Time: Oct 31, 2014 at 11:44:18 PM

Latest Report: Oct 31, 2014 at 10:50 PM


Visibility: 2 mi

Pressure: 30.30 "Hg

Humidity: 100%

Dew point: 39 °F

Location of KaunasLocation

Historic Weather in Kaunas — Graph

°F

Kaunas temperature yesterday

Maximum temperature yesterday: 45 °F (at 1:20 PM)
Minimum temperature yesterday: 28 °F (at 6:50 AM)
Average temperature yesterday: 38 °F

Past Weeks' High & Low Weather Summary

 TemperatureHumidityPressure
High57 °F (Oct 20, 1:20 AM)100% (Oct 17, 5:20 AM)30.54 "Hg (Oct 17, 5:20 AM)
Low18 °F (Oct 24, 8:20 AM)20% (Oct 25, 4:20 PM)29.50 "Hg (Oct 20, 5:50 PM)
Average39 °F68%30.14 "Hg
* Reported Oct 16 11:20 PM — Oct 31 10:20 PM, Kaunas, Weather by CustomWeather, © 2014

Note: Actual official high and low records may vary slightly from our data, if they occured in-between our weather recording intervals... More about our weather records

Advertising

Kaunas weather history for previous 24 hours

 ConditionsComfort  
Time TempWeatherWind HumidityBarometerVisibility
10:20 PM
Oct 31
39 °FSleet. Overcast.3 mph100%30.30 "Hg1 mi
9:50 PM41 °FFog.3 mph93%30.30 "Hg0 mi
9:20 PM39 °FFog.2 mph100%30.30 "Hg1 mi
8:50 PM39 °FFog.3 mph100%30.30 "Hg1 mi
8:20 PM39 °FFog.3 mph93%30.30 "Hg2 mi
7:50 PM39 °FFog.6 mph93%30.30 "Hg2 mi
7:20 PM41 °FFog.5 mph87%30.30 "Hg3 mi
6:50 PM41 °FFog.6 mph87%30.30 "Hg3 mi
6:20 PM41 °FLow clouds.5 mph87%30.30 "Hg4 mi
5:50 PM41 °FLow clouds.5 mph93%30.30 "Hg5 mi
5:20 PM43 °FLow clouds.6 mph87%30.30 "Hg6 mi
4:50 PM43 °FLow clouds.6 mph87%30.30 "Hg6 mi
4:20 PM43 °FLow clouds.8 mph87%30.30 "HgN/A
3:50 PM45 °FLow clouds.6 mph81%30.30 "Hg6 mi
3:20 PM45 °FLow clouds.7 mph81%30.27 "HgN/A
2:50 PM45 °FLow clouds.6 mph81%30.30 "Hg6 mi
2:20 PM43 °FLow clouds.5 mph87%30.30 "Hg4 mi
1:50 PM43 °FLow clouds.3 mph87%30.30 "Hg4 mi
1:20 PM43 °FLow clouds.3 mph87%30.30 "Hg4 mi
12:50 PM43 °FFog.3 mph87%30.30 "Hg3 mi
12:20 PM41 °FFog.5 mph93%30.30 "Hg3 mi
11:50 AM41 °FFog.6 mph93%30.30 "Hg3 mi
11:20 AM39 °FFog.3 mph93%30.30 "Hg1 mi
10:50 AM39 °FFog.3 mph93%30.30 "Hg1 mi
10:20 AM39 °FFog.5 mph93%30.30 "Hg0 mi
9:50 AM39 °FFog.3 mph93%30.30 "Hg0 mi
9:20 AM37 °FFog.2 mph93%30.30 "Hg0 mi
8:50 AM37 °FFog.2 mph93%30.27 "Hg0 mi
8:20 AM36 °FFog.2 mph100%30.27 "Hg0 mi
7:50 AM36 °FFog.3 mph93%30.27 "Hg0 mi
7:20 AM36 °FFog.5 mph93%30.27 "Hg0 mi
6:50 AM36 °FFog.3 mph93%30.27 "Hg0 mi
6:20 AM36 °FFog.2 mph100%30.27 "Hg0 mi
5:50 AM37 °FFog.3 mph93%30.27 "Hg0 mi
5:20 AM37 °FFog.3 mph93%30.27 "Hg0 mi
4:50 AM37 °FFog.6 mph93%30.27 "Hg0 mi
4:20 AM37 °FFog.5 mph93%30.24 "Hg0 mi
3:50 AM39 °FFog.5 mph93%30.24 "Hg0 mi
3:20 AM39 °FFog.5 mph93%30.24 "Hg0 mi
2:50 AM39 °FFog.5 mph93%30.24 "Hg0 mi
2:20 AM39 °FFog.5 mph93%30.24 "Hg0 mi
1:50 AM39 °FFog.3 mph93%30.24 "Hg0 mi
1:20 AM39 °FFog.2 mph93%30.24 "Hg0 mi
12:50 AM37 °FFog.5 mph100%30.24 "Hg0 mi
12:20 AM37 °FFog.1 mph93%30.24 "Hg0 mi
11:50 PM
Oct 30
37 °FFog.5 mph93%30.24 "Hg0 mi
11:20 PM37 °FFog.3 mph93%30.21 "Hg0 mi
Weather by CustomWeather, © 2014

See weather overviewHow to use our weather pages